Погода в Берестечке

Украина / Волынская область     50°21′25″N   25°06′43″E
темп.,
°C
ветер,
м/с
пор.,
м/с
влажн.,
%
обл.,
%
осадки,
мм/ч
давл.,
гПа
погр.,
м
23 апреля, пт
пт2300:00+4зюз38945 0.0 1018189
03:00+2з369153 0.0 1018124
06:00+2зсз388696 0.0 1019174
09:00+5зсз58671 0.0 1020508
12:00+9з5750100 0.0 10201964
15:00+9зсз7954100 0.4 10191973
18:00+9зсз59505 0.2 10191889
21:00+5з41074100 0.4 1020284
24 апреля, сб
сб2400:00+3з498578 0.1 1021299
03:00+3зсз5984100 0.2 1022750
06:00+1з5109132 0.1 1022367
09:00+4з697277 0.3 1023722
12:00+8зсз6943100 0.1 10222572
15:00+9зсз5843100 0.1 10222346
18:00+9сз464983 0.1 10211580
21:00+5з226399 0.1 102118
25 апреля, вс
вс2500:00+4юз367692 0.0 1020123
03:00+4зюз51184100 0.1 1019573
06:00+2зсз599394 0.0 1020352
09:00+3сз577297 0.1 1021839
12:00+6сз674822 0.0 10211751
15:00+7сз674799 0.0 10202001
18:00+7сз584331 0.0 10202088
21:00+3з356555 0.1 102083
26 апреля, пн
пн2600:00+2з357127 0.0 1020108
03:000зюз38815 0.0 1020168
06:00−1зюз48865 0.0 1020204
09:00+3сз577394 0.1 1020795
12:00+6сз6747100 0.7 10192137
15:00+7зсз5738100 0.7 10182594
18:00+6сз5651100 0.1 10171538
21:00+4зсз1163100 0.2 101710
27 апреля, вт
вт2700:00+2зюз3371100 0.0 101733
03:000з33840 0.1 101746
06:00−1зюз34890 0.0 101781
09:00+4з45641 0.0 1017502
12:00+8зсз34485 0.0 10171496
15:00+10з234424 0.0 10151641
18:00+11ююв12436 0.0 10141577
21:00+6вюв3364100 0.0 101434